THOR BURNER 2 R/B, 3522

Orbit data source: Space-Track

THOR BURNER 2 R/B, 3522 is space debris in SSO originally from a launch on Wed, 23 Oct 1968 UTC launched from the Air Force Western Test Range (AFWTR). Debris objects in space refer to the collection of defunct objects orbiting the Earth. Examples of debris include non-operational satellites, rocket bodies, and fragments generated from explosions, collisions, or faulty payload assembly.

Loading next visibility...
Identifier
3522, 1968-092B
Orbit
SSO
Country
Flag of USUS
Related business
Manufacturer
Thiokol/TE
Mission
Spacecraft
Bus & Motor
STAR 37, Unknown motor
Mass
154 kg wet, 154 kg dry
Launch date (UTC)
1968-10-23 (57 years ago)
Launch vehicle
Unknown
Launch site
Air Force Western Test Range (AFWTR)
Object type
Payload
Rocket body
Debris
Shape & HBR
Unknown
Radar Cross Section
Large (>1 m²)

Expand to show TLE details & history
Last TLE update: 15 hours ago

TLE from 15 hours ago
0 THOR BURNER 2 R/B
1  3522U 68092B   25312.36792275  .00000396  00000-0  16717-3 0  9994
2  3522  98.7874  96.4106 0029938  93.4840 266.9768 14.30898518968691
Epoch: 2025-11-08T08:49Z
TLE epoch observation values (Epoch: 2025-11-08T08:49:48.525Z)
Latitude
0.00004°
Longitude
-83.84014°
Altitude
792.852 km
Speed
7.457 km/s
True Right ascension
06h 25m 38s
True Declination
0° 00' 00"
Sunlit
Object was in full shadow at epoch
Visualization orbit readout
Latitude
Unknown
Longitude
Unknown
Altitude
Unknown
Speed
Unknown
Apparent Right ascension
Unknown
Apparent Declination
Unknown
Sunlit
N/A
Visualization observer readout
Local Sidereal Time
20:12:53
Azimuth
Unknown
Elevation
Unknown
Doppler factor
Unknown
Orbital elements
Apogee altitude
807.324 km
Perigee altitude
764.429 km
Semi-major axis
7,164.014 km
Eccentricity
0.00299
Inclination
98.7874°
RAAN
96.4106°
Arg. of periapsis
93.484°
True anomaly
266.63428°
Mean anomaly
266.9768°
Eccentric anomaly
266.80553°
Mean motion
3.57939 °/min
Orbital period
100.58 mins
BSTAR
0.00016717
Loading maneuver chart data...
Computing Atmospheric mass density...
Loading historical data...
Loading historical data...
Loading historical data...
Loading historical data...
Loading historical data...
Loading historical data...
Loading historical data...
Other satellites on launch #92 in the year 1968 (1968-10-23 UTC)

Documentation

Showing up to 5 results
|